| time (UTC) | temp F | wind direction | speed MPH | gust MPH | rain 1hr in | rain 24hr in | rain mn in | humidity % | barometer mb |
| 20260904170816 | 96 | 271 | 0.0 | 0.0 | 0.00 | 0.00 | 0.00 | 27 | 1020.8 |
| 20260904170309 | 96 | 272 | 0.0 | 0.0 | 0.00 | 0.00 | 0.00 | 26 | 1020.9 |
| 20260904165803 | 96 | 271 | 0.0 | 0.0 | 0.00 | 0.00 | 0.00 | 26 | 1020.9 |
| 20260904165259 | 97 | 271 | 0.0 | 1.0 | 0.00 | 0.00 | 0.00 | 25 | 1020.9 |
| 20260904164751 | 97 | 271 | 0.0 | 1.0 | 0.00 | 0.00 | 0.00 | 25 | 1020.8 |
| 20260904164245 | 97 | 268 | 0.0 | 1.0 | 0.00 | 0.00 | 0.00 | 26 | 1020.9 |
| 20260904163745 | 97 | 265 | 0.0 | 4.0 | 0.00 | 0.00 | 0.00 | 25 | 1020.9 |
| 20260904163245 | 97 | 283 | 0.0 | 4.0 | 0.00 | 0.00 | 0.00 | 25 | 1020.8 |
| 20260904162745 | 97 | 288 | 0.0 | 5.0 | 0.00 | 0.00 | 0.00 | 25 | 1020.8 |
| 20260904162245 | 98 | 279 | 0.0 | 5.0 | 0.00 | 0.00 | 0.00 | 25 | 1020.9 |
| 20260904161746 | 98 | 261 | 0.0 | 3.0 | 0.00 | 0.00 | 0.00 | 25 | 1020.8 |
| 20260904161245 | 98 | 290 | 0.0 | 4.0 | 0.00 | 0.00 | 0.00 | 25 | 1020.8 |
| 20260904160743 | 98 | 278 | 0.0 | 4.0 | 0.00 | 0.00 | 0.00 | 24 | 1020.9 |
| 20260904160242 | 98 | 274 | 0.0 | 2.0 | 0.00 | 0.00 | 0.00 | 25 | 1020.9 |
| 20260904155742 | 98 | 274 | 0.0 | 4.0 | 0.00 | 0.00 | 0.00 | 25 | 1020.9 |
| 20260904155239 | 98 | 274 | 0.0 | 4.0 | 0.00 | 0.00 | 0.00 | 24 | 1020.9 |
| 20260904154739 | 98 | 274 | 0.0 | 4.0 | 0.00 | 0.00 | 0.00 | 25 | 1021.0 |
| 20260904153735 | 98 | 251 | 0.0 | 3.0 | 0.00 | 0.00 | 0.00 | 24 | 1021.0 |
| 20260904153236 | 98 | 205 | 0.0 | 3.0 | 0.00 | 0.00 | 0.00 | 24 | 1021.1 |
| 20260904152738 | 98 | 269 | 1.0 | 4.0 | 0.00 | 0.00 | 0.00 | 22 | 1021.2 |
| 20260904152235 | 98 | 274 | 1.0 | 6.0 | 0.00 | 0.00 | 0.00 | 22 | 1021.2 |
| 20260904151233 | 98 | 298 | 1.0 | 6.0 | 0.00 | 0.00 | 0.00 | 23 | 1021.2 |
| 20260904150732 | 98 | 281 | 1.0 | 7.0 | 0.00 | 0.00 | 0.00 | 23 | 1021.2 |
| 20260904150235 | 98 | 340 | 1.0 | 7.0 | 0.00 | 0.00 | 0.00 | 23 | 1021.2 |
| 20260904145733 | 98 | 284 | 0.0 | 4.0 | 0.00 | 0.00 | 0.00 | 23 | 1021.2 |
| 20260904145233 | 98 | 280 | 0.0 | 4.0 | 0.00 | 0.00 | 0.00 | 23 | 1021.3 |
| 20260904144733 | 98 | 289 | 1.0 | 7.0 | 0.00 | 0.00 | 0.00 | 23 | 1021.2 |
| 20260904144234 | 98 | 296 | 1.0 | 9.0 | 0.00 | 0.00 | 0.00 | 24 | 1021.2 |
| 20260904143733 | 98 | 290 | 1.0 | 9.0 | 0.00 | 0.00 | 0.00 | 24 | 1021.2 |
| 20260904143233 | 98 | 279 | 2.0 | 9.0 | 0.00 | 0.00 | 0.00 | 24 | 1021.3 |
| 20260904142730 | 98 | 205 | 1.0 | 9.0 | 0.00 | 0.00 | 0.00 | 24 | 1021.2 |
| 20260904142228 | 98 | 317 | 1.0 | 7.0 | 0.00 | 0.00 | 0.00 | 24 | 1021.3 |
| 20260904141730 | 98 | 269 | 1.0 | 7.0 | 0.00 | 0.00 | 0.00 | 24 | 1021.3 |
| 20260904141231 | 98 | 279 | 0.0 | 2.0 | 0.00 | 0.00 | 0.00 | 25 | 1021.3 |
| 20260904140730 | 98 | 264 | 0.0 | 5.0 | 0.00 | 0.00 | 0.00 | 25 | 1021.3 |
| 20260904140228 | 97 | 308 | 1.0 | 6.0 | 0.00 | 0.00 | 0.00 | 25 | 1021.3 |
| 20260904135730 | 97 | 202 | 1.0 | 8.0 | 0.00 | 0.00 | 0.00 | 24 | 1021.5 |
| 20260904135228 | 97 | 276 | 1.0 | 8.0 | 0.00 | 0.00 | 0.00 | 25 | 1021.5 |
| 20260904134731 | 97 | 299 | 2.0 | 10.0 | 0.00 | 0.00 | 0.00 | 25 | 1021.6 |
| 20260904134229 | 97 | 272 | 1.0 | 10.0 | 0.00 | 0.00 | 0.00 | 25 | 1021.7 |
| 20260904133731 | 97 | 352 | 1.0 | 10.0 | 0.00 | 0.00 | 0.00 | 26 | 1021.6 |
| 20260904132729 | 97 | 271 | 1.0 | 8.0 | 0.00 | 0.00 | 0.00 | 27 | 1021.7 |
| 20260904132229 | 97 | 291 | 1.0 | 8.0 | 0.00 | 0.00 | 0.00 | 27 | 1021.7 |
| 20260904131730 | 98 | 290 | 0.0 | 4.0 | 0.00 | 0.00 | 0.00 | 27 | 1021.7 |
| 20260904131228 | 97 | 328 | 1.0 | 6.0 | 0.00 | 0.00 | 0.00 | 27 | 1021.7 |
| 20260904130239 | 97 | 309 | 1.0 | 6.0 | 0.00 | 0.00 | 0.00 | 28 | 1021.7 |
| 20260904125722 | 97 | 345 | 0.0 | 5.0 | 0.00 | 0.00 | 0.00 | 29 | 1021.8 |
| 20260904125224 | 97 | 320 | 0.0 | 5.0 | 0.00 | 0.00 | 0.00 | 30 | 1021.8 |
| 20260904124223 | 96 | 276 | 1.0 | 4.0 | 0.00 | 0.00 | 0.00 | 29 | 1021.9 |
| 20260904122721 | 96 | 238 | 0.0 | 4.0 | 0.00 | 0.00 | 0.00 | 30 | 1021.9 |
| 20260904122218 | 96 | 139 | 0.0 | 5.0 | 0.00 | 0.00 | 0.00 | 29 | 1022.0 |
| 20260904121720 | 96 | 333 | 0.0 | 5.0 | 0.00 | 0.00 | 0.00 | 29 | 1022.0 |
| 20260904121232 | 96 | 331 | 0.0 | 2.0 | 0.00 | 0.00 | 0.00 | 27 | 1022.0 |
| 20260904120718 | 96 | 124 | 0.0 | 1.0 | 0.00 | 0.00 | 0.00 | 28 | 1022.2 |
| 20260904115717 | 95 | 126 | 0.0 | 3.0 | 0.00 | 0.00 | 0.00 | 27 | 1022.3 |
| 20260904115219 | 95 | 105 | 0.0 | 1.0 | 0.00 | 0.00 | 0.00 | 28 | 1022.4 |
| 20260904114714 | 95 | 179 | 0.0 | 1.0 | 0.00 | 0.00 | 0.00 | 28 | 1022.5 |
| 20260904113710 | 94 | 218 | 0.0 | 1.0 | 0.00 | 0.00 | 0.00 | 28 | 1022.4 |
| 20260904113209 | 94 | 136 | 0.0 | 1.0 | 0.00 | 0.00 | 0.00 | 28 | 1022.5 |
| 20260904112709 | 94 | 133 | 0.0 | 1.0 | 0.00 | 0.00 | 0.00 | 28 | 1022.6 |
| 20260904112205 | 94 | 132 | 0.0 | 2.0 | 0.00 | 0.00 | 0.00 | 29 | 1022.7 |
| 20260904111203 | 94 | 176 | 0.0 | 1.0 | 0.00 | 0.00 | 0.00 | 33 | 1022.7 |
| 20260904105657 | 92 | 221 | 0.0 | 5.0 | 0.00 | 0.00 | 0.00 | 33 | 1022.8 |
| 20260904105154 | 92 | 273 | 0.0 | 5.0 | 0.00 | 0.00 | 0.00 | 32 | 1022.8 |
| 20260904104654 | 92 | 137 | 0.0 | 2.0 | 0.00 | 0.00 | 0.00 | 31 | 1022.9 |
| 20260904104154 | 91 | 138 | 0.0 | 3.0 | 0.00 | 0.00 | 0.00 | 31 | 1022.8 |
| 20260904103656 | 92 | 132 | 0.0 | 3.0 | 0.00 | 0.00 | 0.00 | 33 | 1022.9 |
| 20260904103156 | 91 | 113 | 0.0 | 3.0 | 0.00 | 0.00 | 0.00 | 34 | 1022.9 |
| 20260904102653 | 91 | 114 | 0.0 | 3.0 | 0.00 | 0.00 | 0.00 | 32 | 1022.9 |
| 20260904102152 | 91 | 138 | 0.0 | 4.0 | 0.00 | 0.00 | 0.00 | 33 | 1022.9 |
| 20260904101648 | 91 | 141 | 0.0 | 4.0 | 0.00 | 0.00 | 0.00 | 33 | 1023.0 |
| 20260904101147 | 91 | 131 | 0.0 | 4.0 | 0.00 | 0.00 | 0.00 | 33 | 1023.1 |
| 20260904100143 | 90 | 116 | 0.0 | 5.0 | 0.00 | 0.00 | 0.00 | 34 | 1023.1 |
| 20260904095644 | 89 | 106 | 0.0 | 3.0 | 0.00 | 0.00 | 0.00 | 35 | 1023.1 |
| 20260904095142 | 89 | 107 | 0.0 | 3.0 | 0.00 | 0.00 | 0.00 | 35 | 1023.2 |
| 20260904094140 | 88 | 105 | 0.0 | 3.0 | 0.00 | 0.00 | 0.00 | 37 | 1023.2 |
| 20260904093131 | 87 | 140 | 0.0 | 4.0 | 0.00 | 0.00 | 0.00 | 38 | 1023.4 |
| 20260904092626 | 87 | 117 | 0.0 | 4.0 | 0.00 | 0.00 | 0.00 | 37 | 1023.4 |
| 20260904092128 | 87 | 114 | 1.0 | 4.0 | 0.00 | 0.00 | 0.00 | 38 | 1023.4 |
| 20260904091625 | 87 | 125 | 0.0 | 5.0 | 0.00 | 0.00 | 0.00 | 41 | 1023.4 |
| 20260904091125 | 87 | 73 | 0.0 | 5.0 | 0.00 | 0.00 | 0.00 | 40 | 1023.5 |
| 20260904090624 | 87 | 91 | 0.0 | 3.0 | 0.00 | 0.00 | 0.00 | 42 | 1023.5 |
| 20260904090125 | 86 | 91 | 0.0 | 3.0 | 0.00 | 0.00 | 0.00 | 40 | 1023.5 |
| 20260904085625 | 86 | 86 | 0.0 | 2.0 | 0.00 | 0.00 | 0.00 | 44 | 1023.4 |
| 20260904084125 | 84 | 84 | 0.0 | 4.0 | 0.00 | 0.00 | 0.00 | 49 | 1023.4 |
| 20260904083625 | 84 | 98 | 0.0 | 4.0 | 0.00 | 0.00 | 0.00 | 52 | 1023.3 |
| 20260904083124 | 84 | 97 | 0.0 | 3.0 | 0.00 | 0.00 | 0.00 | 53 | 1023.4 |
| 20260904082122 | 83 | 111 | 0.0 | 3.0 | 0.00 | 0.00 | 0.00 | 56 | 1023.3 |
| 20260904081623 | 83 | 105 | 0.0 | 1.0 | 0.00 | 0.00 | 0.00 | 56 | 1023.3 |
| 20260904080622 | 82 | 125 | 0.0 | 1.0 | 0.00 | 0.00 | 0.00 | 59 | 1023.3 |
| 20260904080120 | 82 | 126 | 0.0 | 1.0 | 0.00 | 0.00 | 0.00 | 60 | 1023.2 |
| 20260904075616 | 81 | 143 | 0.0 | 0.0 | 0.00 | 0.00 | 0.00 | 62 | 1023.2 |
| 20260904075110 | 80 | 143 | 0.0 | 1.0 | 0.00 | 0.00 | 0.00 | 62 | 1023.1 |
| 20260904074603 | 79 | 143 | 0.0 | 1.0 | 0.00 | 0.00 | 0.00 | 63 | 1023.2 |
| 20260904074056 | 79 | 143 | 0.0 | 1.0 | 0.00 | 0.00 | 0.00 | 65 | 1023.2 |
| 20260904073552 | 78 | 143 | 0.0 | 1.0 | 0.00 | 0.00 | 0.00 | 64 | 1023.1 |
| 20260904073044 | 78 | 145 | 0.0 | 1.0 | 0.00 | 0.00 | 0.00 | 65 | 1023.2 |
| 20260904072539 | 78 | 146 | 0.0 | 4.0 | 0.00 | 0.00 | 0.00 | 67 | 1023.2 |
| 20260904072033 | 77 | 148 | 0.0 | 4.0 | 0.00 | 0.00 | 0.00 | 67 | 1023.2 |
| 20260904071528 | 76 | 255 | 0.0 | 0.0 | 0.00 | 0.00 | 0.00 | 68 | 1023.2 |
| 20260904071022 | 76 | 259 | 0.0 | 0.0 | 0.00 | 0.00 | 0.00 | 69 | 1023.2 |
| 20260904070521 | 75 | 259 | 0.0 | 0.0 | 0.00 | 0.00 | 0.00 | 70 | 1023.3 |
| 20260904070025 | 74 | 259 | 0.0 | 0.0 | 0.00 | 0.00 | 0.00 | 71 | 1023.2 |
| 20260904065519 | 74 | 260 | 0.0 | 0.0 | 0.00 | 0.00 | 0.00 | 73 | 1023.2 |
| 20260904065019 | 73 | 260 | 0.0 | 0.0 | 0.00 | 0.00 | 0.00 | 74 | 1023.2 |
| 20260904064017 | 70 | 261 | 0.0 | 0.0 | 0.00 | 0.00 | 0.00 | 77 | 1023.2 |
| 20260904063515 | 70 | 261 | 0.0 | 0.0 | 0.00 | 0.00 | 0.00 | 78 | 1023.2 |
| 20260904063019 | 69 | 261 | 0.0 | 0.0 | 0.00 | 0.00 | 0.00 | 80 | 1023.3 |
| 20260904062517 | 69 | 261 | 0.0 | 0.0 | 0.00 | 0.00 | 0.00 | 80 | 1023.2 |
| 20260904062016 | 68 | 261 | 0.0 | 0.0 | 0.00 | 0.00 | 0.00 | 81 | 1023.3 |
| 20260904061512 | 67 | 262 | 0.0 | 0.0 | 0.00 | 0.00 | 0.00 | 83 | 1023.2 |
| 20260904061013 | 66 | 274 | 0.0 | 0.0 | 0.00 | 0.00 | 0.00 | 84 | 1023.2 |
| 20260904060513 | 65 | 274 | 0.0 | 0.0 | 0.00 | 0.00 | 0.00 | 85 | 1023.1 |
| 20260904060009 | 65 | 274 | 0.0 | 0.0 | 0.00 | 0.00 | 0.00 | 85 | 1023.2 |
| 20260904055006 | 64 | 273 | 0.0 | 0.0 | 0.00 | 0.00 | 0.00 | 86 | 1023.2 |
| 20260904054505 | 64 | 273 | 0.0 | 0.0 | 0.00 | 0.00 | 0.00 | 86 | 1023.2 |
| 20260904054002 | 63 | 273 | 0.0 | 0.0 | 0.00 | 0.00 | 0.00 | 86 | 1023.2 |
| 20260904053500 | 63 | 274 | 0.0 | 0.0 | 0.00 | 0.00 | 0.00 | 87 | 1023.1 |
| 20260904053001 | 63 | 274 | 0.0 | 0.0 | 0.00 | 0.00 | 0.00 | 87 | 1023.1 |
| 20260904052459 | 63 | 274 | 0.0 | 2.0 | 0.00 | 0.00 | 0.00 | 87 | 1023.1 |
| 20260904052000 | 63 | 274 | 1.0 | 4.0 | 0.00 | 0.00 | 0.00 | 86 | 1023.1 |
| 20260904051500 | 63 | 272 | 0.0 | 4.0 | 0.00 | 0.00 | 0.00 | 86 | 1022.9 |
| 20260904051000 | 62 | 273 | 0.0 | 2.0 | 0.00 | 0.00 | 0.00 | 86 | 1023.0 |
| 20260904050501 | 62 | 265 | 0.0 | 2.0 | 0.00 | 0.00 | 0.00 | 86 | 1022.9 |
| 20260904050000 | 62 | 264 | 0.0 | 1.0 | 0.00 | 0.00 | 0.00 | 86 | 1022.9 |
| 20260904045501 | 62 | 270 | 0.0 | 0.0 | 0.00 | 0.00 | 0.00 | 86 | 1022.8 |
| 20260904044956 | 62 | 271 | 0.0 | 4.0 | 0.00 | 0.00 | 0.00 | 85 | 1022.7 |
| 20260904044457 | 63 | 271 | 0.0 | 4.0 | 0.00 | 0.00 | 0.00 | 85 | 1022.7 |
| 20260904043957 | 63 | 278 | 0.0 | 0.0 | 0.00 | 0.00 | 0.00 | 85 | 1022.7 |
| 20260904043456 | 63 | 278 | 0.0 | 0.0 | 0.00 | 0.00 | 0.00 | 85 | 1022.6 |
| 20260904041957 | 63 | 276 | 0.0 | 3.0 | 0.00 | 0.00 | 0.00 | 85 | 1022.6 |
| 20260904041459 | 63 | 279 | 0.0 | 3.0 | 0.00 | 0.00 | 0.00 | 85 | 1022.5 |
| 20260904040958 | 63 | 279 | 0.0 | 3.0 | 0.00 | 0.00 | 0.00 | 85 | 1022.5 |
| 20260904040456 | 63 | 273 | 0.0 | 3.0 | 0.00 | 0.00 | 0.00 | 85 | 1022.4 |
| 20260904035956 | 63 | 285 | 0.0 | 3.0 | 0.00 | 0.00 | 0.00 | 85 | 1022.5 |
| 20260904035456 | 63 | 285 | 0.0 | 3.0 | 0.00 | 0.00 | 0.00 | 84 | 1022.5 |
| 20260904034958 | 63 | 274 | 0.0 | 0.0 | 0.00 | 0.00 | 0.00 | 84 | 1022.5 |
| 20260904034457 | 63 | 274 | 0.0 | 0.0 | 0.00 | 0.00 | 0.00 | 84 | 1022.5 |
| 20260904033956 | 63 | 274 | 0.0 | 0.0 | 0.00 | 0.00 | 0.00 | 84 | 1022.5 |
| 20260904033456 | 63 | 274 | 0.0 | 1.0 | 0.00 | 0.00 | 0.00 | 84 | 1022.5 |
| 20260904032455 | 63 | 273 | 0.0 | 0.0 | 0.00 | 0.00 | 0.00 | 84 | 1022.3 |
| 20260904031951 | 63 | 271 | 0.0 | 0.0 | 0.00 | 0.00 | 0.00 | 84 | 1022.3 |
| 20260904031443 | 63 | 273 | 0.0 | 3.0 | 0.00 | 0.00 | 0.00 | 84 | 1022.4 |
| 20260904030937 | 63 | 269 | 1.0 | 4.0 | 0.00 | 0.00 | 0.00 | 83 | 1022.4 |
| 20260904030431 | 64 | 273 | 1.0 | 5.0 | 0.00 | 0.00 | 0.00 | 83 | 1022.4 |
| 20260904025924 | 64 | 282 | 2.0 | 6.0 | 0.00 | 0.00 | 0.00 | 82 | 1022.3 |
| 20260904025418 | 64 | 265 | 2.0 | 6.0 | 0.00 | 0.00 | 0.00 | 82 | 1022.4 |
| 20260904024914 | 64 | 274 | 1.0 | 6.0 | 0.00 | 0.00 | 0.00 | 81 | 1022.4 |
| 20260904024416 | 65 | 272 | 1.0 | 6.0 | 0.00 | 0.00 | 0.00 | 81 | 1022.4 |
| 20260904023912 | 65 | 268 | 2.0 | 6.0 | 0.00 | 0.00 | 0.00 | 81 | 1022.3 |
| 20260904022909 | 65 | 266 | 0.0 | 2.0 | 0.00 | 0.00 | 0.00 | 80 | 1022.5 |
| 20260904022409 | 66 | 273 | 0.0 | 3.0 | 0.00 | 0.00 | 0.00 | 80 | 1022.5 |
| 20260904021908 | 65 | 272 | 0.0 | 4.0 | 0.00 | 0.00 | 0.00 | 80 | 1022.6 |
| 20260904021409 | 65 | 274 | 0.0 | 4.0 | 0.00 | 0.00 | 0.00 | 80 | 1022.5 |
| 20260904020407 | 65 | 269 | 1.0 | 5.0 | 0.00 | 0.00 | 0.00 | 80 | 1022.5 |
| 20260904015905 | 65 | 261 | 2.0 | 6.0 | 0.00 | 0.00 | 0.00 | 80 | 1022.5 |
| 20260904015418 | 65 | 282 | 2.0 | 6.0 | 0.00 | 0.00 | 0.00 | 80 | 1022.5 |
| 20260904014903 | 65 | 273 | 0.0 | 6.0 | 0.00 | 0.00 | 0.00 | 79 | 1022.5 |
| 20260904013900 | 66 | 272 | 1.0 | 4.0 | 0.00 | 0.00 | 0.00 | 78 | 1022.6 |
| 20260904013357 | 66 | 270 | 0.0 | 3.0 | 0.00 | 0.00 | 0.00 | 78 | 1022.5 |
| 20260904012856 | 66 | 270 | 0.0 | 3.0 | 0.00 | 0.00 | 0.00 | 78 | 1022.6 |
| 20260904011854 | 66 | 274 | 1.0 | 5.0 | 0.00 | 0.00 | 0.00 | 79 | 1022.5 |
| 20260904011346 | 66 | 274 | 0.0 | 5.0 | 0.00 | 0.00 | 0.00 | 78 | 1022.5 |
| 20260904010841 | 66 | 266 | 0.0 | 1.0 | 0.00 | 0.00 | 0.00 | 78 | 1022.5 |
| 20260904010338 | 66 | 272 | 0.0 | 0.0 | 0.00 | 0.00 | 0.00 | 78 | 1022.4 |
| 20260904005831 | 66 | 270 | 0.0 | 1.0 | 0.00 | 0.00 | 0.00 | 78 | 1022.5 |
| 20260904005324 | 67 | 270 | 1.0 | 4.0 | 0.00 | 0.00 | 0.00 | 78 | 1022.6 |
| 20260904004817 | 67 | 264 | 1.0 | 4.0 | 0.00 | 0.00 | 0.00 | 78 | 1022.5 |
| 20260904004313 | 67 | 275 | 0.0 | 4.0 | 0.00 | 0.00 | 0.00 | 77 | 1022.5 |
| 20260904003259 | 67 | 266 | 1.0 | 5.0 | 0.00 | 0.00 | 0.00 | 78 | 1022.5 |
| 20260904002755 | 67 | 273 | 1.0 | 5.0 | 0.00 | 0.00 | 0.00 | 78 | 1022.5 |
| 20260904002249 | 67 | 274 | 1.0 | 5.0 | 0.00 | 0.00 | 0.00 | 78 | 1022.4 |
| 20260904001742 | 66 | 286 | 2.0 | 5.0 | 0.00 | 0.00 | 0.00 | 78 | 1022.5 |
| 20260904001236 | 66 | 275 | 2.0 | 7.0 | 0.00 | 0.00 | 0.00 | 77 | 1022.6 |
| 20260904000729 | 67 | 279 | 2.0 | 7.0 | 0.00 | 0.00 | 0.00 | 77 | 1022.5 |
| 20260904000226 | 67 | 279 | 1.0 | 6.0 | 0.00 | 0.00 | 0.00 | 76 | 1022.6 |
| 20260903235718 | 68 | 276 | 0.0 | 2.0 | 0.00 | 0.00 | 0.00 | 76 | 1022.6 |
| 20260903235216 | 68 | 272 | 0.0 | 4.0 | 0.00 | 0.00 | 0.00 | 75 | 1022.5 |
| 20260903234705 | 68 | 268 | 0.0 | 4.0 | 0.00 | 0.00 | 0.00 | 75 | 1022.5 |
| 20260903233655 | 68 | 270 | 0.0 | 0.0 | 0.00 | 0.00 | 0.00 | 75 | 1022.5 |
| 20260903233150 | 68 | 270 | 1.0 | 5.0 | 0.00 | 0.00 | 0.00 | 74 | 1022.5 |
| 20260903232641 | 69 | 274 | 1.0 | 5.0 | 0.00 | 0.00 | 0.00 | 74 | 1022.6 |
| 20260903231631 | 69 | 283 | 1.0 | 5.0 | 0.00 | 0.00 | 0.00 | 73 | 1022.6 |
| 20260903231122 | 69 | 276 | 0.0 | 4.0 | 0.00 | 0.00 | 0.00 | 73 | 1022.7 |
| 20260903230617 | 69 | 278 | 0.0 | 0.0 | 0.00 | 0.00 | 0.00 | 73 | 1022.6 |
| 20260903230111 | 69 | 278 | 0.0 | 1.0 | 0.00 | 0.00 | 0.00 | 73 | 1022.6 |
| 20260903225606 | 69 | 278 | 0.0 | 4.0 | 0.00 | 0.00 | 0.00 | 73 | 1022.6 |
| 20260903224555 | 69 | 274 | 0.0 | 4.0 | 0.00 | 0.00 | 0.00 | 73 | 1022.6 |
| 20260903224050 | 69 | 271 | 1.0 | 5.0 | 0.00 | 0.00 | 0.00 | 73 | 1022.6 |
| 20260903223554 | 70 | 269 | 1.0 | 5.0 | 0.00 | 0.00 | 0.00 | 73 | 1022.5 |
| 20260903223034 | 70 | 274 | 1.0 | 5.0 | 0.00 | 0.00 | 0.00 | 72 | 1022.5 |
| 20260903222529 | 70 | 275 | 1.0 | 5.0 | 0.00 | 0.00 | 0.00 | 71 | 1022.5 |
| 20260903222026 | 70 | 272 | 0.0 | 2.0 | 0.00 | 0.00 | 0.00 | 71 | 1022.3 |
| 20260903221519 | 71 | 276 | 0.0 | 2.0 | 0.00 | 0.00 | 0.00 | 71 | 1022.3 |
| 20260903221017 | 71 | 277 | 0.0 | 3.0 | 0.00 | 0.00 | 0.00 | 71 | 1022.1 |
| 20260903220513 | 71 | 276 | 0.0 | 3.0 | 0.00 | 0.00 | 0.00 | 70 | 1022.2 |
| 20260903220015 | 71 | 266 | 0.0 | 2.0 | 0.00 | 0.00 | 0.00 | 70 | 1022.2 |
| 20260903215513 | 71 | 267 | 0.0 | 0.0 | 0.00 | 0.00 | 0.00 | 70 | 1022.2 |
| 20260903214513 | 71 | 266 | 0.0 | 2.0 | 0.00 | 0.00 | 0.00 | 70 | 1022.2 |
| 20260903214010 | 71 | 266 | 0.0 | 3.0 | 0.00 | 0.00 | 0.00 | 70 | 1022.2 |
| 20260903213007 | 72 | 267 | 0.0 | 2.0 | 0.00 | 0.00 | 0.00 | 69 | 1022.2 |
| 20260903212506 | 72 | 264 | 0.0 | 3.0 | 0.00 | 0.00 | 0.00 | 69 | 1022.0 |
| 20260903212002 | 72 | 269 | 0.0 | 3.0 | 0.00 | 0.00 | 0.00 | 68 | 1022.1 |
| 20260903211500 | 72 | 271 | 1.0 | 3.0 | 0.00 | 0.00 | 0.00 | 69 | 1022.0 |
| 20260903211001 | 72 | 270 | 1.0 | 3.0 | 0.00 | 0.00 | 0.00 | 69 | 1022.1 |
| 20260903210458 | 72 | 274 | 0.0 | 2.0 | 0.00 | 0.00 | 0.00 | 69 | 1022.0 |
| 20260903205956 | 72 | 276 | 0.0 | 3.0 | 0.00 | 0.00 | 0.00 | 69 | 1021.9 |
| 20260903204951 | 72 | 274 | 0.0 | 2.0 | 0.00 | 0.00 | 0.00 | 68 | 1021.8 |
| 20260903203949 | 73 | 273 | 0.0 | 4.0 | 0.00 | 0.00 | 0.00 | 67 | 1021.8 |
| 20260903202949 | 73 | 272 | 0.0 | 4.0 | 0.00 | 0.00 | 0.00 | 66 | 1021.8 |
| 20260903202449 | 74 | 278 | 0.0 | 0.0 | 0.00 | 0.00 | 0.00 | 65 | 1021.8 |
| 20260903201951 | 74 | 279 | 0.0 | 1.0 | 0.00 | 0.00 | 0.00 | 65 | 1021.8 |
| 20260903201450 | 75 | 282 | 0.0 | 4.0 | 0.00 | 0.00 | 0.00 | 64 | 1021.8 |
| 20260903200950 | 75 | 283 | 0.0 | 4.0 | 0.00 | 0.00 | 0.00 | 63 | 1021.7 |
| 20260903195946 | 76 | 264 | 0.0 | 0.0 | 0.00 | 0.00 | 0.00 | 61 | 1021.6 |
| 20260903195446 | 76 | 264 | 0.0 | 0.0 | 0.00 | 0.00 | 0.00 | 61 | 1021.6 |
| 20260903194949 | 76 | 264 | 0.0 | 0.0 | 0.00 | 0.00 | 0.00 | 61 | 1021.6 |
| 20260903193943 | 77 | 264 | 0.0 | 0.0 | 0.00 | 0.00 | 0.00 | 60 | 1021.6 |
| 20260903193439 | 77 | 261 | 0.0 | 0.0 | 0.00 | 0.00 | 0.00 | 59 | 1021.6 |
| 20260903192941 | 77 | 261 | 0.0 | 0.0 | 0.00 | 0.00 | 0.00 | 59 | 1021.6 |
| 20260903192441 | 78 | 261 | 0.0 | 0.0 | 0.00 | 0.00 | 0.00 | 59 | 1021.7 |
| 20260903191438 | 79 | 257 | 0.0 | 0.0 | 0.00 | 0.00 | 0.00 | 57 | 1021.5 |
| 20260903190935 | 79 | 250 | 0.0 | 0.0 | 0.00 | 0.00 | 0.00 | 56 | 1021.4 |
| 20260903190439 | 79 | 254 | 0.0 | 0.0 | 0.00 | 0.00 | 0.00 | 55 | 1021.3 |
| 20260903185933 | 80 | 254 | 0.0 | 0.0 | 0.00 | 0.00 | 0.00 | 55 | 1021.2 |
| 20260903185433 | 80 | 254 | 0.0 | 0.0 | 0.00 | 0.00 | 0.00 | 55 | 1021.2 |
| 20260903184927 | 80 | 254 | 0.0 | 0.0 | 0.00 | 0.00 | 0.00 | 55 | 1021.2 |
| 20260903184427 | 81 | 254 | 0.0 | 0.0 | 0.00 | 0.00 | 0.00 | 54 | 1021.1 |
| 20260903183926 | 82 | 252 | 0.0 | 0.0 | 0.00 | 0.00 | 0.00 | 53 | 1021.0 |
| 20260903183425 | 82 | 110 | 0.0 | 0.0 | 0.00 | 0.00 | 0.00 | 52 | 1020.9 |
| 20260903182927 | 83 | 110 | 0.0 | 0.0 | 0.00 | 0.00 | 0.00 | 50 | 1020.8 |
| 20260903182426 | 84 | 109 | 0.0 | 0.0 | 0.00 | 0.00 | 0.00 | 50 | 1020.7 |
| 20260903181925 | 84 | 109 | 0.0 | 0.0 | 0.00 | 0.00 | 0.00 | 49 | 1020.6 |
| 20260903181425 | 85 | 110 | 0.0 | 0.0 | 0.00 | 0.00 | 0.00 | 49 | 1020.5 |
| 20260903180925 | 85 | 110 | 0.0 | 0.0 | 0.00 | 0.00 | 0.00 | 49 | 1020.3 |
| 20260903180423 | 85 | 110 | 0.0 | 0.0 | 0.00 | 0.00 | 0.00 | 48 | 1020.4 |
| 20260903175923 | 86 | 110 | 0.0 | 0.0 | 0.00 | 0.00 | 0.00 | 46 | 1020.2 |
| 20260903175423 | 86 | 110 | 0.0 | 0.0 | 0.00 | 0.00 | 0.00 | 46 | 1020.2 |
| 20260903174423 | 87 | 110 | 0.0 | 0.0 | 0.00 | 0.00 | 0.00 | 44 | 1020.0 |
| 20260903173923 | 88 | 110 | 0.0 | 0.0 | 0.00 | 0.00 | 0.00 | 43 | 1019.9 |
| 20260903173423 | 89 | 110 | 0.0 | 0.0 | 0.00 | 0.00 | 0.00 | 42 | 1020.0 |
| 20260903172921 | 90 | 110 | 0.0 | 0.0 | 0.00 | 0.00 | 0.00 | 38 | 1019.8 |
| 20260903172420 | 91 | 110 | 0.0 | 0.0 | 0.00 | 0.00 | 0.00 | 37 | 1020.0 |
| 20260903171921 | 91 | 110 | 0.0 | 0.0 | 0.00 | 0.00 | 0.00 | 36 | 1020.0 |
| 20260903171414 | 92 | 110 | 0.0 | 0.0 | 0.00 | 0.00 | 0.00 | 36 | 1020.0 |